Location: *
(53.9002°N, 27.5624°E)
Time: 07:37:35
(UTC+00:00)

Cosmos 1939 Rocket - Pass Details

Date: 12 November 2019
Orbit: 532 x 585 km, 97.4° (Epoch: 07 December)

Event Time Altitude Azimuth Distance (km) Brightness Sun altitude
Exits shadow 15:43:17 17° 102° (ESE) 1,525 4.5 -12.7°
Maximum altitude 15:45:22 24° 62° (ENE) 1,222 4.0 -13.0°
Drops below altitude 10° 15:48:45 10° 8° (N) 1,918 5.4 -13.5°
Sets 15:51:11 0° 355° (N) 2,818 6.4 -13.9°
